Location: Gleizolles
(44.4833°N, 6.7667°E)
Time: 00:24:15
(UTC+00:00)

Vanguard 2 Rocket - Pass Details

Date: 17 June 2024
Orbit: 555 x 3302 km, 32.9° (Epoch: 24 July)

Event Time Altitude Azimuth Distance (km) Brightness Sun altitude
Rises 01:10:21 0° 203° (SSW) 7,034 - -18.6°
Reaches altitude 10° 01:16:13 10° 192° (SSW) 6,187 - -18.2°
Exits shadow 01:20:04 16° 183° (S) 5,697 10.4 -17.9°
Maximum altitude 01:30:56 27° 145° (SE) 4,854 10.3 -17.0°
Drops below altitude 10° 01:43:55 10° 97° (E) 5,493 11.2 -15.9°
Sets 01:48:36 0° 86° (E) 6,148 11.7 -15.5°
